Location: Tafessasset
(32.5899°N, 5.4824°W)
Time: 04:49:59
(UTC+00:00)

Shenzhou-11 Module - Pass Details

Date: 18 February 2020
Orbit: 287 x 304 km, 42.8° (Epoch: 07 April)

Event Time Altitude Azimuth Distance (km) Brightness Sun altitude
Exits shadow 05:49:21 22° 353° (N) 729 3.3 -16.1°
Drops below altitude 10° 05:51:08 10° 34° (NE) 1,170 4.9 -15.7°
Sets 05:53:20 0° 51° (NE) 2,004 6.4 -15.2°
